"Pseudo-MPEC" for C14VQP2

Created 2019 Oct 10 11:07:14 UT using Find_Orb

Click here for an explanation of pseudo-MPECs

 
 Astrometry: 
     C14VQP2  C2019 10 08.33258 02 00 49.04 +30 03 50.7    ~A88q 20.4 GVNEOCPG96
     C14VQP2  C2019 10 08.33956 02 00 48.77 +30 03 55.7    ~A88q 20.6 GVNEOCPG96
     C14VQP2  C2019 10 08.34468 02 00 48.59 +30 03 59.5    ~A88q 20.5 GVNEOCPG96
     C14VQP2  C2019 10 08.35374 02 00 48.25 +30 04 06.0    ~A89M 19.7 GVNEOCPG96
     C14VQP2  C2019 10 08.36535 02 00 47.86 +30 04 14.2    ~A89M 20.5 GVNEOCPG96
     C14VQP2  C2019 10 08.37003 02 00 47.68 +30 04 17.9    ~A89M 20.5 GVNEOCPG96
     C14VQP2  C2019 10 08.42449 02 00 45.75 +30 04 56.5    ~A8Aq 20.4 GVNEOCPI52
     C14VQP2  C2019 10 08.42957 02 00 45.56 +30 05 00.1    ~A8Aq 20.4 GVNEOCPI52
     C14VQP2  C2019 10 08.43466 02 00 45.38 +30 05 03.6    ~A8Aq 20.5 GVNEOCPI52
     C14VQP2  C2019 10 08.43855 02 00 45.26 +30 05 06.5    ~A8Aq 20.6 GVNEOCPI52
     C14VQP2 KC2019 10 09.22394 02 00 21.92 +30 14 26.4    ~A9Mq 20.6 RoNEOCP691
     C14VQP2 KC2019 10 09.24157 02 00 21.30 +30 14 39.6    ~A9Mq 20.5 RoNEOCP691
     C14VQP2  C2019 10 09t54q:UAA8AstrometryrKQe-mXredacted;wFA1X+o#[pA*4$SHvF52
     C14VQP2  C2019 10 09mXq5JclickD`!cmVoV![4,PkBF2LdQ=H'eZx+herev:,_b$oBtKCF52
     C14VQP2  C2019 10 09U9*_for^L,pxJJOBM0--ca8_!yy=#n9wt7,gexplanationAlLmRF52
     C14VQP2  C2019 10 09.46347 02 00 12.98 +30 17 14.2    ~A9Bq 20.4 GVNEOCPI52
     C14VQP2  C2019 10 09.46737 02 00 12.89 +30 17 17.0    ~A9Bq 20.1 GVNEOCPI52
     C14VQP2  C2019 10 09.47143 02 00 12.79 +30 17 18.9    ~A9Bq 19.8 GVNEOCPI52
     C14VQP2  C2019 10 10.40015 01 59 42.32 +30 27 57.5    ~AAAM 20.7 GVNEOCPI52
     C14VQP2  C2019 10 10.40909 01 59 42.00 +30 28 03.4    ~AAAM 20.2 GVNEOCPI52
     C14VQP2  C2019 10 10.41637 01 59 41.70 +30 28 08.2    ~AAAM 20.5 GVNEOCPI52
     C14VQP2  C2019 10 10.42204 01 59 41.46 +30 28 12.0    ~AAAM 20.8 GVNEOCPI52

Station data:
(691) Steward Observatory, Kitt Peak - Spacewatch  (N31.962174 W111.600327)
   US/Arizona.  Observer J. V. Scotti. 0.9-m f/3 reflector + CCD.
(F52) Pan-STARRS 2, Haleakala  (N20.707384 W156.255910)  US/Hawaii. 1.8-m
   Ritchey-Chrétien + CCD.
(G96) Mt. Lemmon Survey  (N32.442754 W110.788720)  US/Arizona.  Observers T.
   A. Pruyne, B. M. Africano, E. J. Christensen, G. A. Farneth, D. C. Fuls,
   A. R. Gibbs, A. D. Grauer, H. Groeller, J. A. Johnson, R. A. Kowalski, S.
   M. Larson, G. J. Leonard, D. Rankin, R. L. Seaman, F. C. Shelly. 1.5-m
   reflector + 10K CCD.
(I52) Steward Observatory, Mt. Lemmon Station  (N32.442547 W110.788920)
   US/Arizona.  Observers T. A. Pruyne, B. M. Africano, E. J. Christensen, G.
   A. Farneth, D. C. Fuls, A. R. Gibbs, A. D. Grauer, H. Groeller, J. A.
   Johnson, R. A. Kowalski, S. M. Larson, G. J. Leonard, D. Rankin, R. L.
   Seaman, F. C. Shelly. 1.0-m reflector + CCD.

Orbital elements:  C14VQP2
   Perihelion 2019 Sep 26.932194 +/- 2.79 TT = 22:22:21 (JD 2458753.432194)
Epoch 2019 Oct 10.0 TT = JDT 2458766.5   Earth MOID: 0.5886   AutoNEOCP
M   2.92717671 +/- 0.59             (J2000 ecliptic)
n   0.22399908 +/- 0.00575          Peri.   37.99709 +/- 2.0
a   2.68517057 +/- 0.0459           Node   339.19692 +/- 0.41
e   0.4129206 +/- 0.00916           Incl.    9.33716 +/- 0.10
P   4.40                   H 19.9   G  0.15   U  9.3  
q 1.57640809 +/- 0.00621    Q 3.79393306 +/- 0.0887
From 22 observations 2019 Oct. 8-10; mean residual 0".23
Residuals in arcseconds: 
191008 G96  .09+  .06+    191008 I52  .02-  .15-    191009 I52  .33+  .22+    
191008 G96  .16-  .03-    191008 I52  .20+  .01+    191009 I52  .94+  .60-    
191008 G96  .11-  .05+    191009 691  .30-  .03-    191010 I52  .22-  .09-    
191008 G96  .29-  .01-    191009 691  .06-  .33+    191010 I52  .16+  .07-    
191008 G96  .07+  .20-    191009 F52  .23+  .04-    191010 I52  .04-  .05-    
191008 G96  .09-  .13+    191009 F52  .04+  .17+    191010 I52  .29-  .04+    
191008 I52  .12+  .08-    191009 F52  .01-  .02+    
191008 I52  .01-  .07-    191009 I52  .34-  .04+    

Ephemerides (geocentric):
Date (UTC) HH   RA              Dec         delta   r     elong  mag " sig PA
---- -- -- --  -------------   -----------  ------ ------ -----  --- ---- ---
2019 10 10 11  01 59 40.706   +30 28 37.59  .62672 1.5809 152.4 20.8 .068  39
2019 10 10 12  01 59 39.290   +30 29 05.57  .62667 1.5809 152.4 20.8 .078  39
2019 10 10 13  01 59 37.872   +30 29 33.49  .62662 1.5809 152.4 20.8 .089  39
2019 10 10 14  01 59 36.450   +30 30 01.38  .62656 1.5810 152.5 20.8 .099  39
2019 10 10 15  01 59 35.026   +30 30 29.22  .62651 1.5810 152.5 20.8 .110  39
2019 10 10 16  01 59 33.599   +30 30 57.01  .62646 1.5810 152.5 20.8 .121  39
2019 10 10 17  01 59 32.169   +30 31 24.76  .62641 1.5811 152.5 20.8 .133  39
2019 10 10 18  01 59 30.736   +30 31 52.46  .62636 1.5811 152.6 20.8 .145  39
2019 10 10 19  01 59 29.301   +30 32 20.12  .62631 1.5811 152.6 20.8 .158  39
2019 10 10 20  01 59 27.862   +30 32 47.73  .62626 1.5811 152.6 20.8 .170  39
2019 10 10 21  01 59 26.421   +30 33 15.30  .62621 1.5812 152.7 20.8 .183  39
2019 10 10 22  01 59 24.977   +30 33 42.82  .62616 1.5812 152.7 20.8 .197  39
2019 10 10 23  01 59 23.530   +30 34 10.29  .62611 1.5812 152.7 20.8 .211  39
2019 10 11 00  01 59 22.081   +30 34 37.72  .62606 1.5813 152.7 20.8 .225  39
2019 10 11 01  01 59 20.628   +30 35 05.11  .62601 1.5813 152.8 20.8 .239  39
2019 10 11 02  01 59 19.173   +30 35 32.44  .62596 1.5813 152.8 20.8 .254  39
2019 10 11 03  01 59 17.715   +30 35 59.73  .62592 1.5813 152.8 20.8 .269  39
2019 10 11 04  01 59 16.254   +30 36 26.98  .62587 1.5814 152.9 20.8 .285  39
2019 10 11 05  01 59 14.791   +30 36 54.18  .62582 1.5814 152.9 20.8 .301  39
2019 10 11 06  01 59 13.325   +30 37 21.34  .62577 1.5814 152.9 20.8 .317  39
2019 10 11 07  01 59 11.856   +30 37 48.44  .62572 1.5815 152.9 20.8 .334  39
2019 10 11 08  01 59 10.384   +30 38 15.51  .62568 1.5815 153.0 20.8 .350  39
2019 10 11 09  01 59 08.910   +30 38 42.52  .62563 1.5815 153.0 20.8 .368  39
2019 10 11 10  01 59 07.432   +30 39 09.49  .62558 1.5815 153.0 20.8 .385  39
2019 10 11 11  01 59 05.953   +30 39 36.42  .62554 1.5816 153.0 20.8 .403  39
2019 10 11 12  01 59 04.470   +30 40 03.29  .62549 1.5816 153.1 20.8 .422  39
2019 10 11 13  01 59 02.985   +30 40 30.13  .62545 1.5816 153.1 20.8 .440  38
2019 10 11 14  01 59 01.497   +30 40 56.91  .62540 1.5817 153.1 20.8 .460  38
2019 10 11 15  01 59 00.006   +30 41 23.65  .62536 1.5817 153.2 20.8 .479  38
2019 10 11 16  01 58 58.513   +30 41 50.34  .62531 1.5817 153.2 20.8 .499  38
2019 10 11 17  01 58 57.017   +30 42 16.99  .62527 1.5818 153.2 20.8 .519  38
2019 10 11 18  01 58 55.518   +30 42 43.59  .62522 1.5818 153.2 20.8 .539  38
2019 10 11 19  01 58 54.017   +30 43 10.15  .62518 1.5818 153.3 20.8 .560  38
2019 10 11 20  01 58 52.513   +30 43 36.65  .62514 1.5818 153.3 20.8 .581  38
2019 10 11 21  01 58 51.006   +30 44 03.12  .62509 1.5819 153.3 20.8 .603  38
2019 10 11 22  01 58 49.497   +30 44 29.53  .62505 1.5819 153.3 20.8 .624  38
2019 10 11 23  01 58 47.985   +30 44 55.90  .62501 1.5819 153.4 20.8 .647  38
2019 10 12 00  01 58 46.471   +30 45 22.22  .62497 1.5820 153.4 20.8 .669  38
2019 10 12 01  01 58 44.954   +30 45 48.50  .62492 1.5820 153.4 20.8 .692  38
2019 10 12 02  01 58 43.434   +30 46 14.73  .62488 1.5820 153.5 20.8 .715  38
2019 10 12 03  01 58 41.912   +30 46 40.91  .62484 1.5821 153.5 20.8 .739  38
2019 10 12 04  01 58 40.387   +30 47 07.04  .62480 1.5821 153.5 20.8 .763  38
2019 10 12 05  01 58 38.859   +30 47 33.13  .62476 1.5821 153.5 20.8 .787  38
2019 10 12 06  01 58 37.329   +30 47 59.17  .62472 1.5822 153.6 20.7 .812  38
2019 10 12 07  01 58 35.797   +30 48 25.17  .62468 1.5822 153.6 20.7 .837  38
2019 10 12 08  01 58 34.262   +30 48 51.12  .62464 1.5822 153.6 20.7 .862  38
2019 10 12 09  01 58 32.724   +30 49 17.02  .62460 1.5822 153.6 20.7 .888  38
2019 10 12 10  01 58 31.184   +30 49 42.87  .62456 1.5823 153.7 20.7 .914  38